Regional Weather Roundup
Issued by NWS

Home | Current Version | Previous Version | Text Only | Print | Product List | Glossary On
Versions: 1 2 3 4 5 6 7 8 9 10 11 12 13 14 15 16 17 18 19 20 21 22 23 24 25 26 27 28 29 30 31 32 33 34 35 36 37 38 39 40 41 42 43 44 45 46 47 48 49 50
000
ASUS43 KBIS 262101
RWRND

NORTH DAKOTA REGIONAL WEATHER ROUNDUP
NATIONAL WEATHER SERVICE BISMARCK ND
400 PM CDT THU MAR 26 2015

NOTE: "FAIR" INDICATES FEW OR NO CLOUDS BELOW 12,000 FEET WITH NO
SIGNIFICANT WEATHER AND/OR OBSTRUCTIONS TO VISIBILITY.


NDZ001>003-009>011-017-262200-
NORTHWEST NORTH DAKOTA

CITY           SKY/WX    TMP DP  RH WIND       PRES   REMARKS
WILLISTON      CLOUDY    45  27  49 S7        30.17F
MINOT          MOSUNNY   38  19  46 MISG      30.21F
MINOT AFB      PTSUNNY   38  25  59 VRB1      30.21F
$$

NDZ018>021-031>035-040>046-262200-
SOUTHWEST NORTH DAKOTA

CITY           SKY/WX    TMP DP  RH WIND       PRES   REMARKS
BISMARCK       PTSUNNY   37  21  52 E7        30.22F
DICKINSON      CLOUDY    37  30  75 E5        30.15F
GARRISON         N/A     38  23  55 VRB7      30.20F
HETTINGER ARPT CLOUDY    36  30  79 SE6       30.17F
$$

NDZ004>008-012>016-024-026-027-054-262200-
NORTHEAST NORTH DAKOTA

CITY           SKY/WX    TMP DP  RH WIND       PRES   REMARKS
GRAND FORKS    CLOUDY    33  18  53 N21       30.28S
GRND FRKS AFB  MIX PCPN  30  15  55 NE18      30.27F WCI  17
DEVILS LAKE    CLOUDY    30  16  55 NE9       30.25F
$$

NDZ022-023-025-028>030-036>039-047>053-262200-
SOUTHEAST NORTH DAKOTA

CITY           SKY/WX    TMP DP  RH WIND       PRES   REMARKS
FARGO          MOSUNNY   36   9  32 N18G26    30.23F
JAMESTOWN      MOSUNNY   37  11  34 N16       30.22S
$$



USA.gov is the U.S. government's official web portal to all federal, state and local government web resources and services.